[[{"header":{"parameterUnit":"m.s-1","parameterCategory":1,"la1":30.2991,"la2":30.254,"lo1":-89.0895,"lo2":-89.0444,"dy":0.0017,"dx":0.0017,"nx":28,"ny":28,"refTime":"2025-02-09T03:00:00:Z","depth":0,"parameterNumber":2,"parameterNumberName":"U-component_of_WINDS"},"data":[0,0,0,0,0,0,0,0,0,0,0,0,0,0,0,0,0,0,0,0,0,0,0,0,0,0,0,0,0,0,0,0,0,0,0,0,0,0,0,0,0,0,0,0,0,0,0,0,0,0,0,0,0,0,0,0,0,0,-1.459,-1.459,0,-1.4554,-1.4553,-1.4553,-1.4506,-1.4505,-1.4505,-1.4504,-1.4467,-1.4467,-1.4467,0,0,0,0,0,0,0,0,0,0,0,0,0,-1.462,-1.462,-1.459,-1.459,-1.4589,-1.4554,-1.4553,-1.4553,-1.4506,-1.4505,-1.4505,-1.4504,-1.4467,-1.4467,-1.4467,0,0,0,0,0,0,0,0,0,0,0,0,0,-1.4598,-1.462,-1.459,-1.4562,-1.4559,-1.4554,-1.4553,-1.4552,-1.4507,-1.4505,-1.4504,-1.4503,-1.4467,-1.4467,-1.4467,-1.4486,0,0,-1.4465,-1.4465,0,0,0,0,0,0,0,0,-1.4599,-1.4597,-1.4566,-1.4564,-1.456,-1.4533,-1.455,-1.453,-1.4507,-1.4526,-1.4504,-1.4503,-1.449,-1.4488,-1.4483,-1.4485,-1.4483,-1.4465,-1.4465,-1.4465,-1.4465,0,0,0,0,0,0,0,-1.4601,-1.4598,-1.4576,-1.4566,-1.4562,-1.4551,-1.4547,-1.4546,-1.4515,-1.4525,-1.4521,-1.4517,-1.4488,-1.4484,-1.4482,-1.4483,-1.4465,-1.4465,-1.4465,-1.4464,-1.4498,-1.4499,0,0,0,0,0,0,-1.4606,-1.46,-1.4577,-1.4574,-1.4577,-1.4551,-1.4546,-1.4543,-1.4515,-1.4509,-1.4518,-1.4515,-1.4485,-1.4483,-1.4481,-1.4501,-1.4465,-1.4464,-1.4464,-1.4497,-1.4498,-1.4499,0,0,0,0,0,0,-1.4607,-1.4605,-1.4578,-1.4586,-1.4582,-1.4552,-1.4549,-1.4543,-1.4538,-1.451,-1.4504,-1.452,-1.4484,-1.4481,-1.4485,-1.4499,-1.4464,-1.4464,-1.4495,-1.4497,-1.4499,-1.4543,0,0,0,0,0,0,-1.4608,-1.4605,-1.4612,-1.4587,-1.4582,-1.4583,-1.455,-1.4543,-1.4538,-1.4534,-1.451,-1.4505,-1.4483,-1.4486,-1.4485,-1.4498,-1.4463,-1.4494,-1.4496,-1.4498,-1.454,-1.4546,-1.4551,0,0,0,0,0,-1.4609,-1.4627,-1.4613,-1.461,-1.459,-1.4584,-1.4581,-1.4556,-1.4539,-1.4546,-1.4528,-1.4506,-1.4498,-1.4487,-1.4485,-1.4498,-1.4493,-1.4495,-1.4498,-1.4538,-1.4545,-1.4551,0,0,0,0,0,0,-1.4655,-1.4623,-1.4607,-1.4616,-1.4603,-1.4576,-1.4584,-1.4564,-1.4556,-1.4552,-1.4521,-1.4516,-1.4523,-1.4512,-1.4499,-1.4516,-1.4492,-1.4495,-1.4523,-1.453,-1.4535,-1.4537,-1.4463,0,0,0,0,0,-1.4666,-1.4664,-1.4636,-1.4647,-1.4641,-1.4614,-1.461,-1.4592,-1.4577,-1.4571,-1.4554,-1.454,-1.4535,-1.4532,-1.4525,-1.4539,-1.4532,-1.4547,-1.4553,-1.4557,-1.4559,-1.4564,-1.457,-1.4508,-1.4508,-1.4508,0,0,-1.4689,-1.4671,-1.4671,-1.4655,-1.4643,-1.4642,-1.4609,-1.4609,-1.4608,-1.4571,-1.4573,-1.456,-1.4543,-1.4552,-1.4555,-1.4542,-1.4575,-1.4561,-1.4564,-1.4564,-1.4568,-1.4574,-1.4579,-1.4509,-1.4509,-1.4509,0,0,-1.4729,-1.4716,-1.4723,-1.4711,-1.4693,-1.4675,-1.4677,-1.4653,-1.4642,-1.4644,-1.4617,-1.4615,-1.4607,-1.4595,-1.4588,-1.4626,-1.4604,-1.4625,-1.4652,-1.4658,-1.4663,-1.4667,-1.4679,-1.4684,-1.4627,-1.4627,-1.4627,0,-1.4759,-1.4756,-1.4729,-1.473,-1.4724,-1.4691,-1.4698,-1.4688,-1.4669,-1.4665,-1.4652,-1.464,-1.4627,-1.4632,-1.4641,-1.4637,-1.4638,-1.4626,-1.4664,-1.4668,-1.4672,-1.4683,-1.4687,-1.4629,-1.4629,-1.4629,-1.4629,0,-1.4794,-1.4792,-1.48,-1.4781,-1.4776,-1.4781,-1.4754,-1.4752,-1.4735,-1.4718,-1.4721,-1.4703,-1.4692,-1.4693,-1.4676,-1.4695,-1.4688,-1.467,-1.4645,-1.4681,-1.469,-1.4694,-1.4633,-1.4632,-1.4631,-1.4631,0,0,-1.486,-1.4827,-1.4831,-1.4822,-1.48,-1.4797,-1.4801,-1.479,-1.4788,-1.4777,-1.4778,-1.4772,-1.4755,-1.4747,-1.4729,-1.4734,-1.4763,-1.4715,-1.4715,-1.4724,-1.4783,-1.4795,-1.48,-1.475,-1.4751,-1.4751,-1.4783,0,-1.4895,-1.4897,-1.4873,-1.4882,-1.488,-1.4849,-1.4852,-1.4839,-1.4824,-1.482,-1.4803,-1.4799,-1.4778,-1.4773,-1.4777,-1.4759,-1.4774,-1.4757,-1.475,-1.475,-1.4753,-1.4806,-1.4819,-1.485,-1.4787,-1.4788,-1.4788,0,-1.4935,-1.4925,-1.4934,-1.4911,-1.4909,-1.4912,-1.49,-1.4897,-1.4881,-1.487,-1.4862,-1.4841,-1.4842,-1.482,-1.4821,-1.481,-1.4806,-1.4797,-1.4798,-1.4794,-1.477,-1.4802,-1.4859,-1.4863,-1.4794,-1.4794,-1.4793,0,-1.4981,-1.497,-1.4973,-1.4967,-1.4941,-1.4943,-1.4933,-1.4916,-1.4911,-1.4901,-1.4898,-1.4888,-1.4883,-1.4876,-1.4853,-1.484,-1.4857,-1.4833,-1.4847,-1.4847,-1.485,-1.485,-1.4905,-1.4851,-1.4851,-1.4851,-1.485,0,-1.5021,-1.5027,-1.4993,-1.4995,-1.5001,-1.4975,-1.4981,-1.4968,-1.4953,-1.4952,-1.4926,-1.4926,-1.4896,-1.4893,-1.4875,-1.4878,-1.4876,-1.4867,-1.4861,-1.4868,-1.4869,-1.4864,-1.486,-1.4852,-1.4852,-1.4851,-1.4851,0,-1.5072,-1.505,-1.5051,-1.5027,-1.5021,-1.5026,-1.5005,-1.5006,-1.499,-1.4989,-1.4987,-1.4961,-1.4956,-1.4933,-1.4922,-1.491,-1.4918,-1.4909,-1.4923,-1.4919,-1.4934,-1.4932,-1.4986,-1.4991,-1.4935,-1.4936,-1.4937,0,-1.5098,-1.5102,-1.5078,-1.5075,-1.5066,-1.5062,-1.5057,-1.5031,-1.5027,-1.501,-1.5012,-1.5005,-1.4997,-1.4989,-1.4969,-1.4961,-1.4951,-1.497,-1.4949,-1.4955,-1.4949,-1.4948,-1.4948,-1.4974,-1.4975,-1.4976,-1.4976,0,-1.5147,-1.5136,-1.5129,-1.5119,-1.5113,-1.5104,-1.5093,-1.5092,-1.5064,-1.506,-1.5054,-1.5048,-1.5037,-1.5029,-1.5017,-1.5006,-1.4986,-1.4983,-1.4986,-1.4991,-1.4998,-1.4993,-1.4934,-1.4982,-1.4981,-1.4981,-1.498,-1.498,-1.5185,-1.5187,-1.517,-1.5163,-1.5153,-1.5143,-1.5142,-1.5126,-1.5121,-1.5109,-1.5095,-1.509,-1.5075,-1.5057,-1.5047,-1.5043,-1.5032,-1.5036,-1.5037,-1.5038,-1.504,-1.5001,-1.5041,-1.5041,-1.5041,-1.5041,-1.5041,0,-1.5231,-1.5219,-1.5213,-1.5198,-1.5193,-1.5176,-1.5163,-1.516,-1.5156,-1.5143,-1.5136,-1.5129,-1.5121,-1.5102,-1.5093,-1.5093,-1.5084,-1.5091,-1.509,-1.5088,-1.5052,-1.505,-1.5099,-1.5099,-1.5099,-1.5099,-1.5099,-1.5099,-1.5254,-1.5255,-1.5243,-1.5239,-1.5227,-1.5222,-1.5216,-1.5207,-1.5196,-1.5189,-1.5183,-1.517,-1.5155,-1.5144,-1.5136,-1.5131,-1.5128,-1.5138,-1.513,-1.5096,-1.509,-1.5085,-1.5083,-1.5138,-1.5138,-1.5166,-1.5166,-1.5166]},{"header":{"parameterUnit":"m.s-1","parameterCategory":1,"la1":30.2991,"la2":30.254,"lo1":-89.0895,"lo2":-89.0444,"dy":0.0017,"dx":0.0017,"nx":28,"ny":28,"refTime":"2025-02-09T03:00:00:Z","depth":0,"parameterNumber":3,"parameterNumberName":"V-component_of_WINDS"},"data":[0,0,0,0,0,0,0,0,0,0,0,0,0,0,0,0,0,0,0,0,0,0,0,0,0,0,0,0,0,0,0,0,0,0,0,0,0,0,0,0,0,0,0,0,0,0,0,0,0,0,0,0,0,0,0,0,0,0,1.3588,1.3588,0,1.3556,1.3556,1.3556,1.3522,1.3522,1.3521,1.3521,1.3488,1.3488,1.3487,0,0,0,0,0,0,0,0,0,0,0,0,0,1.3621,1.362,1.3588,1.3588,1.3587,1.3556,1.3556,1.3555,1.3522,1.3522,1.3521,1.3521,1.3488,1.3488,1.3487,0,0,0,0,0,0,0,0,0,0,0,0,0,1.3599,1.362,1.3588,1.3567,1.3565,1.3556,1.3556,1.3555,1.3523,1.3522,1.3521,1.352,1.3488,1.3488,1.3487,1.3497,0,0,1.3485,1.3485,0,0,0,0,0,0,0,0,1.3601,1.3598,1.3571,1.3569,1.3566,1.3543,1.3555,1.3536,1.3523,1.3539,1.3521,1.352,1.3507,1.3505,1.35,1.3495,1.3494,1.3485,1.3485,1.3484,1.3484,0,0,0,0,0,0,0,1.3602,1.3599,1.3575,1.357,1.3567,1.3559,1.3556,1.3551,1.3527,1.3537,1.3535,1.3531,1.3505,1.3501,1.3499,1.3493,1.3485,1.3485,1.3484,1.3484,1.3496,1.3497,0,0,0,0,0,0,1.3607,1.3601,1.3576,1.3575,1.3582,1.3559,1.3555,1.3551,1.3527,1.3523,1.3532,1.353,1.3502,1.35,1.3498,1.3509,1.3484,1.3484,1.3483,1.3495,1.3496,1.3497,0,0,0,0,0,0,1.3608,1.3605,1.3578,1.3587,1.3583,1.3559,1.3555,1.3551,1.3546,1.3523,1.3518,1.3532,1.3502,1.3499,1.3498,1.3507,1.3483,1.3483,1.3495,1.3496,1.3497,1.353,0,0,0,0,0,0,1.3609,1.3605,1.3609,1.3587,1.3583,1.3578,1.3555,1.355,1.3545,1.3542,1.3522,1.3518,1.3501,1.3499,1.3497,1.3506,1.3482,1.3494,1.3495,1.3496,1.3528,1.3532,1.3535,0,0,0,0,0,1.361,1.3619,1.3609,1.3606,1.3586,1.3579,1.3576,1.3557,1.3546,1.3549,1.3535,1.3518,1.3506,1.3499,1.3497,1.3505,1.3493,1.3495,1.3496,1.3526,1.3531,1.3535,0,0,0,0,0,0,1.3642,1.3616,1.3605,1.3607,1.3595,1.3573,1.3577,1.3562,1.3554,1.3551,1.3527,1.3523,1.3525,1.3515,1.3507,1.3514,1.3497,1.3499,1.3521,1.3525,1.3529,1.3532,1.3482,0,0,0,0,0,1.365,1.3646,1.3623,1.3627,1.3622,1.3601,1.3596,1.3583,1.357,1.3565,1.355,1.3538,1.3531,1.3527,1.352,1.3526,1.3521,1.3531,1.3534,1.3538,1.3539,1.3542,1.3547,1.3502,1.3502,1.3502,0,0,1.3665,1.365,1.3649,1.3633,1.3623,1.3619,1.3597,1.3594,1.3591,1.3564,1.3562,1.3551,1.3536,1.3539,1.3539,1.353,1.355,1.354,1.3542,1.3542,1.3545,1.3549,1.3553,1.3504,1.3503,1.3503,0,0,1.3691,1.3679,1.3682,1.3672,1.3656,1.3642,1.3643,1.3623,1.3614,1.3612,1.3592,1.3589,1.3578,1.3568,1.3562,1.3585,1.357,1.3583,1.3604,1.3607,1.3611,1.3614,1.3623,1.3626,1.3585,1.3585,1.3585,0,1.3712,1.3706,1.3685,1.3684,1.3678,1.3653,1.3656,1.3648,1.363,1.3627,1.3617,1.3604,1.3592,1.3592,1.3598,1.3593,1.3594,1.3586,1.3612,1.3615,1.3617,1.3626,1.3629,1.3587,1.3587,1.3586,1.3586,0,1.3733,1.373,1.3734,1.3718,1.3713,1.3714,1.3693,1.369,1.3677,1.3663,1.3662,1.3647,1.3637,1.3636,1.3622,1.3635,1.363,1.3616,1.3599,1.3623,1.3631,1.3634,1.3589,1.3589,1.3588,1.3588,0,0,1.378,1.3752,1.3754,1.3747,1.3728,1.3725,1.3725,1.3715,1.3714,1.3702,1.3702,1.3694,1.3682,1.3675,1.366,1.3663,1.3684,1.3649,1.3648,1.3657,1.3698,1.3709,1.3713,1.3673,1.3674,1.3674,1.3699,0,1.3803,1.3802,1.3783,1.3787,1.3784,1.3761,1.3761,1.3749,1.3737,1.3733,1.3719,1.3714,1.3698,1.3693,1.3695,1.3681,1.3692,1.3679,1.3674,1.3674,1.3679,1.3717,1.3728,1.3753,1.3702,1.3702,1.3703,0,1.3831,1.3822,1.3826,1.3808,1.3806,1.3806,1.3796,1.3792,1.3779,1.377,1.3762,1.3746,1.3745,1.3728,1.3727,1.3719,1.3715,1.3708,1.3709,1.3708,1.3691,1.3718,1.376,1.3764,1.3707,1.3707,1.3707,0,1.3866,1.3855,1.3856,1.385,1.3829,1.383,1.3821,1.3807,1.3802,1.3793,1.379,1.3781,1.3777,1.377,1.3752,1.3741,1.3753,1.3735,1.3746,1.3747,1.375,1.3751,1.3793,1.3747,1.3747,1.3747,1.3747,0,1.3895,1.3899,1.3871,1.3872,1.3876,1.3854,1.3858,1.3847,1.3835,1.3833,1.3812,1.3811,1.3787,1.3783,1.3769,1.377,1.3768,1.3761,1.3758,1.3764,1.3765,1.3762,1.376,1.3748,1.3747,1.3747,1.3747,0,1.3935,1.3917,1.3917,1.3896,1.3891,1.3895,1.3877,1.3878,1.3864,1.3862,1.3861,1.384,1.3834,1.3815,1.3805,1.3796,1.3802,1.3794,1.3807,1.3805,1.3818,1.3818,1.3861,1.3866,1.3816,1.3816,1.3816,0,1.3956,1.3958,1.3938,1.3936,1.3928,1.3924,1.3919,1.3898,1.3894,1.3879,1.3882,1.3875,1.3868,1.3861,1.3845,1.3837,1.3829,1.3845,1.3828,1.3835,1.3831,1.3832,1.3832,1.3849,1.385,1.385,1.3851,0,1.3995,1.3986,1.398,1.3971,1.3966,1.3958,1.3949,1.3948,1.3925,1.3921,1.3916,1.3911,1.3901,1.3895,1.3884,1.3875,1.386,1.3856,1.3859,1.3866,1.3873,1.387,1.3818,1.3855,1.3855,1.3855,1.3854,1.3854,1.4026,1.4028,1.4014,1.4008,1.3999,1.3991,1.3991,1.3977,1.3972,1.3963,1.395,1.3947,1.3934,1.3918,1.391,1.3907,1.3899,1.3902,1.3903,1.3904,1.3908,1.3873,1.3905,1.3905,1.3905,1.3905,1.3905,0,1.4065,1.4055,1.405,1.4038,1.4034,1.4019,1.4008,1.4006,1.4003,1.3992,1.3986,1.3981,1.3974,1.3958,1.395,1.3951,1.3944,1.395,1.395,1.3949,1.3916,1.3915,1.3956,1.3956,1.3956,1.3956,1.3956,1.3956,1.4085,1.4087,1.4076,1.4074,1.4063,1.406,1.4055,1.4048,1.4039,1.4034,1.4028,1.4018,1.4005,1.3996,1.399,1.3985,1.3984,1.3993,1.3986,1.3956,1.3951,1.3946,1.3945,1.3992,1.3992,1.4019,1.4019,1.402]}]]